Time_in_sec,Latitude,Longitude,Altitude,Nbsat_max_qualitysignal,Nbsat_locked,valid_data
1314364967.41345263,0.00004178,0.00006412,-45744.46093750,0,0,0
1314365037.96948528,0.00003971,0.00006470,-48370.10156250,0,0,0
1314365038.02467513,0.00003963,0.00006475,-48371.98437500,0,0,0
1314365038.06550026,0.00003963,0.00006475,-48374.24609375,0,0,0
1314365038.11349535,0.00003962,0.00006475,-48375.75000000,0,0,0
1314365038.16551828,0.00003970,0.00006470,-48377.63281250,0,0,0
1314365038.21761394,0.00003962,0.00006475,-48379.51562500,0,0,0
1314365038.26545525,0.00003970,0.00006470,-48381.39843750,0,0,0
1314365038.31253457,0.00003962,0.00006475,-48383.28515625,0,0,0
1314365038.36549902,0.00003970,0.00006470,-48385.16796875,0,0,0
1314365038.41267776,0.00003962,0.00006475,-48387.05078125,0,0,0
1314365038.46453190,0.00003970,0.00006470,-48388.93359375,0,0,0
1314365038.51344419,0.00003961,0.00006475,-48390.81640625,0,0,0
1314365038.56462741,0.00003969,0.00006470,-48392.69921875,0,0,0
1314365038.61257958,0.00003961,0.00006475,-48394.58203125,0,0,0
1314365038.66547847,0.00003969,0.00006470,-48396.46484375,0,0,0
1314365038.71261168,0.00003961,0.00006475,-48398.34765625,0,0,0
1314365038.76547980,0.00003969,0.00006470,-48400.23046875,0,0,0
1314365038.81352210,0.00003961,0.00006475,-48402.11718750,0,0,0
1314365038.86562610,0.00003969,0.00006470,-48404.00000000,0,0,0
1314365038.91375589,0.00003960,0.00006475,-48405.88281250,0,0,0
1314365038.96563268,0.00003968,0.00006470,-48407.76562500,0,0,0
1314365039.01260877,0.00003960,0.00006475,-48409.64843750,0,0,0
1314365039.06545925,0.00003968,0.00006470,-48411.53125000,0,0,0
1314365039.11301708,0.00003960,0.00006475,-48413.41796875,0,0,0
1314365039.16930223,0.00003968,0.00006470,-48415.30078125,0,0,0
1314365039.22555184,0.00003960,0.00006475,-48417.18359375,0,0,0
1314365039.26854134,0.00003959,0.00006475,-48419.44531250,0,0,0
1314365039.31349778,0.00003959,0.00006475,-48420.95312500,0,0,0
1314365039.36460233,0.00003967,0.00006470,-48422.83593750,0,0,0
1314365039.41350985,0.00003959,0.00006475,-48424.71875000,0,0,0
1314365039.46555352,0.00003967,0.00006470,-48426.60156250,0,0,0
1314365039.51671410,0.00003959,0.00006475,-48428.48437500,0,0,0
1314365039.56949067,0.00003967,0.00006470,-48430.37109375,0,0,0
1314365039.61351943,0.00003959,0.00006476,-48432.25390625,0,0,0
1314365039.66554379,0.00003966,0.00006470,-48434.13671875,0,0,0
1314365039.71344161,0.00003958,0.00006476,-48436.02343750,0,0,0
1314365039.76558018,0.00003966,0.00006470,-48437.90625000,0,0,0
1314365039.81261468,0.00003958,0.00006476,-48439.78906250,0,0,0
1314365039.86555457,0.00003966,0.00006470,-48441.67578125,0,0,0
1314365039.91253281,0.00003958,0.00006476,-48443.55859375,0,0,0
1314365039.96950173,0.00003966,0.00006470,-48445.44140625,0,0,0
1314365040.01344514,0.00003958,0.00006476,-48447.32812500,0,0,0
1314365040.07259202,0.00003965,0.00006470,-48449.21093750,0,0,0
1314365040.11344218,0.00003965,0.00006470,-48451.47265625,0,0,0
1314365040.16860080,0.00003965,0.00006470,-48452.98046875,0,0,0
1314365040.21260428,0.00003957,0.00006476,-48454.86328125,0,0,0
1314365040.27152395,0.00003965,0.00006470,-48456.75000000,0,0,0
1314365040.31258845,0.00003957,0.00006476,-48458.63281250,0,0,0
1314365040.36460996,0.00003965,0.00006470,-48460.51562500,0,0,0
1314365040.41356540,0.00003957,0.00006476,-48462.40234375,0,0,0
1314365040.46469927,0.00003964,0.00006470,-48464.28515625,0,0,0
1314365040.51349998,0.00003956,0.00006476,-48466.17187500,0,0,0
1314365040.56464005,0.00003964,0.00006470,-48468.05468750,0,0,0
1314365040.61259174,0.00003956,0.00006476,-48469.94140625,0,0,0
1314365040.66571856,0.00003964,0.00006470,-48471.82421875,0,0,0
1314365040.71261907,0.00003956,0.00006476,-48473.71093750,0,0,0
1314365040.76960516,0.00003964,0.00006470,-48475.59375000,0,0,0
1314365040.82463694,0.00003956,0.00006476,-48477.48046875,0,0,0
1314365040.86464715,0.00003955,0.00006476,-48479.74218750,0,0,0
1314365040.91346359,0.00003955,0.00006476,-48481.25000000,0,0,0
1314365040.96457243,0.00003963,0.00006470,-48483.13281250,0,0,0
1314365041.01422143,0.00003955,0.00006476,-48485.01953125,0,0,0
1314365041.06353688,0.00003963,0.00006470,-48486.90234375,0,0,0
1314365041.11258721,0.00003955,0.00006476,-48488.78906250,0,0,0
1314365041.16454601,0.00003963,0.00006470,-48490.67187500,0,0,0
1314365041.21329808,0.00003955,0.00006476,-48492.55859375,0,0,0
1314365041.26564360,0.00003962,0.00006470,-48494.44531250,0,0,0
1314365041.31347775,0.00003954,0.00006476,-48496.32812500,0,0,0
1314365041.36563993,0.00003962,0.00006470,-48498.21484375,0,0,0
1314365041.41258001,0.00003954,0.00006476,-48500.10156250,0,0,0
1314365041.46548843,0.00003962,0.00006470,-48501.98437500,0,0,0
1314365041.51362157,0.00003954,0.00006476,-48503.87109375,0,0,0
1314365041.56950593,0.00003962,0.00006470,-48505.75390625,0,0,0
1314365041.61349678,0.00003954,0.00006476,-48507.64062500,0,0,0
1314365041.66452289,0.00003962,0.00006470,-48509.52734375,0,0,0
1314365041.71344972,0.00003953,0.00006476,-48511.41015625,0,0,0
1314365041.76454568,0.00003961,0.00006470,-48513.29687500,0,0,0
1314365041.81251979,0.00003953,0.00006476,-48515.18359375,0,0,0
1314365041.86550975,0.00003961,0.00006470,-48517.07031250,0,0,0
1314365041.91255236,0.00003953,0.00006476,-48518.95312500,0,0,0
1314365041.96453428,0.00003961,0.00006470,-48520.83984375,0,0,0
1314365042.01652002,0.00003953,0.00006476,-48522.72656250,0,0,0
1314365042.06450677,0.00003961,0.00006470,-48524.60937500,0,0,0
1314365042.11343598,0.00003952,0.00006476,-48526.49609375,0,0,0
1314365042.16464329,0.00003960,0.00006470,-48528.38281250,0,0,0
1314365042.21357679,0.00003952,0.00006476,-48530.26953125,0,0,0
1314365042.26830316,0.00003960,0.00006470,-48532.15234375,0,0,0
1314365042.31346059,0.00003952,0.00006476,-48534.03906250,0,0,0
1314365042.36946535,0.00003960,0.00006470,-48535.92578125,0,0,0
1314365042.42543221,0.00003952,0.00006476,-48537.81250000,0,0,0
1314365042.46453309,0.00003952,0.00006476,-48540.07421875,0,0,0
1314365042.51242757,0.00003951,0.00006476,-48541.58203125,0,0,0
1314365042.56549811,0.00003959,0.00006470,-48543.46875000,0,0,0
1314365042.61350322,0.00003951,0.00006476,-48545.35546875,0,0,0
1314365042.66547155,0.00003959,0.00006470,-48547.24218750,0,0,0
1314365042.71356702,0.00003951,0.00006476,-48549.12890625,0,0,0
1314365042.76460338,0.00003959,0.00006470,-48551.01562500,0,0,0
1314365042.82556605,0.00003951,0.00006476,-48552.89843750,0,0,0
1314365042.86575103,0.00003951,0.00006477,-48555.16406250,0,0,0
1314365042.91314268,0.00003951,0.00006477,-48556.67187500,0,0,0
1314365042.96447134,0.00003959,0.00006470,-48558.55859375,0,0,0
1314365043.01255322,0.00003950,0.00006477,-48560.44531250,0,0,0
1314365043.06287241,0.00003958,0.00006470,-48562.33203125,0,0,0
1314365043.11258554,0.00003950,0.00006477,-48564.21875000,0,0,0
1314365043.16949964,0.00003958,0.00006470,-48566.10546875,0,0,0
1314365043.21348786,0.00003950,0.00006477,-48567.99218750,0,0,0
1314365043.26554728,0.00003958,0.00006470,-48569.87890625,0,0,0
1314365043.31343389,0.00003950,0.00006477,-48571.76562500,0,0,0
1314365043.36541772,0.00003958,0.00006470,-48573.64843750,0,0,0
1314365043.41270494,0.00003949,0.00006477,-48575.53515625,0,0,0
1314365043.46562433,0.00003957,0.00006470,-48577.42187500,0,0,0
1314365043.51249290,0.00003949,0.00006477,-48579.30859375,0,0,0
1314365043.56947708,0.00003957,0.00006470,-48581.19531250,0,0,0
1314365043.61349320,0.00003949,0.00006477,-48583.08203125,0,0,0
1314365043.66550732,0.00003957,0.00006470,-48584.96875000,0,0,0
1314365043.71339822,0.00003949,0.00006477,-48586.85546875,0,0,0
1314365043.76389122,0.00003957,0.00006470,-48588.74218750,0,0,0
1314365043.81251311,0.00003948,0.00006477,-48590.62890625,0,0,0
1314365043.86946583,0.00003956,0.00006470,-48592.51562500,0,0,0
1314365043.91251898,0.00003948,0.00006477,-48594.40234375,0,0,0
1314365043.96547818,0.00003956,0.00006470,-48596.28906250,0,0,0
1314365044.02547050,0.00003948,0.00006477,-48598.17968750,0,0,0
1314365044.06453586,0.00003948,0.00006477,-48600.44140625,0,0,0
1314365044.11346245,0.00003948,0.00006477,-48601.95312500,0,0,0
1314365044.16451716,0.00003956,0.00006471,-48603.83984375,0,0,0
1314365044.21250439,0.00003947,0.00006477,-48605.72656250,0,0,0
1314365044.26547694,0.00003956,0.00006471,-48607.61328125,0,0,0
1314365044.31348348,0.00003947,0.00006477,-48609.50000000,0,0,0
1314365044.36420417,0.00003955,0.00006471,-48611.38671875,0,0,0
1314365044.41336298,0.00003947,0.00006477,-48613.27343750,0,0,0
1314365044.46446276,0.00003955,0.00006471,-48615.16015625,0,0,0
1314365044.51344395,0.00003947,0.00006477,-48617.05078125,0,0,0
1314365044.56551194,0.00003955,0.00006471,-48618.93750000,0,0,0
1314365044.61349368,0.00003946,0.00006477,-48620.82421875,0,0,0
1314365044.66547084,0.00003955,0.00006471,-48622.71093750,0,0,0
1314365044.71261477,0.00003946,0.00006477,-48624.59765625,0,0,0
1314365044.76548457,0.00003954,0.00006471,-48626.48437500,0,0,0
1314365044.82551527,0.00003946,0.00006477,-48628.37500000,0,0,0
1314365044.86245370,0.00003946,0.00006477,-48630.64062500,0,0,0
1314365044.91345906,0.00003946,0.00006477,-48632.14843750,0,0,0
1314365044.96552777,0.00003954,0.00006471,-48634.03515625,0,0,0
1314365045.01337743,0.00003945,0.00006477,-48635.92578125,0,0,0
1314365045.06545210,0.00003954,0.00006471,-48637.81250000,0,0,0
1314365045.11261916,0.00003945,0.00006477,-48639.69921875,0,0,0
1314365045.16445303,0.00003953,0.00006471,-48641.58593750,0,0,0
1314365045.22451925,0.00003945,0.00006477,-48643.47656250,0,0,0
1314365045.26330113,0.00003945,0.00006477,-48645.73828125,0,0,0
1314365045.31346297,0.00003945,0.00006477,-48647.25000000,0,0,0
1314365045.36534476,0.00003953,0.00006471,-48649.13671875,0,0,0
1314365045.41651917,0.00003944,0.00006478,-48651.02734375,0,0,0
1314365045.46551895,0.00003953,0.00006471,-48652.91406250,0,0,0
1314365045.51340413,0.00003944,0.00006478,-48654.80078125,0,0,0
1314365045.56356573,0.00003953,0.00006471,-48656.68750000,0,0,0
1314365045.62454081,0.00003944,0.00006478,-48658.57812500,0,0,0
1314365045.66447830,0.00003944,0.00006478,-48660.84375000,0,0,0
1314365045.71331692,0.00003944,0.00006478,-48662.35156250,0,0,0
1314365045.76381898,0.00003952,0.00006471,-48664.24218750,0,0,0
1314365045.81346321,0.00003943,0.00006478,-48666.12890625,0,0,0
1314365045.86825109,0.00003952,0.00006471,-48668.01562500,0,0,0
1314365045.91346788,0.00003943,0.00006478,-48669.90625000,0,0,0
1314365045.96849871,0.00003952,0.00006471,-48671.79296875,0,0,0
1314365046.02670598,0.00003943,0.00006478,-48673.67968750,0,0,0
1314365046.06440997,0.00003943,0.00006478,-48675.94531250,0,0,0
1314365046.11345458,0.00003942,0.00006478,-48677.45703125,0,0,0
1314365046.16532946,0.00003951,0.00006471,-48679.34375000,0,0,0
1314365046.21335959,0.00003942,0.00006478,-48681.23437500,0,0,0
1314365046.26830173,0.00003951,0.00006471,-48683.12109375,0,0,0
1314365046.31331515,0.00003942,0.00006478,-48685.01171875,0,0,0
1314365046.36453724,0.00003951,0.00006471,-48686.89843750,0,0,0
1314365046.41344166,0.00003942,0.00006478,-48688.78515625,0,0,0
1314365046.46865153,0.00003950,0.00006471,-48690.67578125,0,0,0
1314365046.51346421,0.00003941,0.00006478,-48692.56250000,0,0,0
1314365046.56463361,0.00003950,0.00006471,-48694.45312500,0,0,0
1314365046.61658573,0.00003941,0.00006478,-48696.33984375,0,0,0
1314365046.66845274,0.00003950,0.00006471,-48698.22656250,0,0,0
1314365046.71249747,0.00003941,0.00006478,-48700.11718750,0,0,0
1314365046.76851392,0.00003950,0.00006471,-48702.00390625,0,0,0
1314365046.81284285,0.00003941,0.00006478,-48703.89453125,0,0,0
1314365046.86462283,0.00003949,0.00006471,-48705.78125000,0,0,0
1314365046.91260386,0.00003940,0.00006478,-48707.67187500,0,0,0
1314365046.96551204,0.00003949,0.00006471,-48709.55859375,0,0,0
1314365047.01260042,0.00003940,0.00006478,-48711.44921875,0,0,0
1314365047.06548190,0.00003949,0.00006471,-48713.33593750,0,0,0
1314365047.11259389,0.00003940,0.00006478,-48715.22656250,0,0,0
1314365047.16528559,0.00003949,0.00006471,-48717.11328125,0,0,0
1314365047.22526193,0.00003939,0.00006478,-48719.00390625,0,0,0
1314365047.26551604,0.00003939,0.00006478,-48721.26953125,0,0,0
1314365047.31299257,0.00003939,0.00006478,-48722.78125000,0,0,0
1314365047.36541772,0.00003948,0.00006471,-48724.66796875,0,0,0
1314365047.41348720,0.00003939,0.00006479,-48726.55859375,0,0,0
1314365047.46549392,0.00003948,0.00006471,-48728.44531250,0,0,0
1314365047.51343775,0.00003939,0.00006479,-48730.33593750,0,0,0
1314365047.56453681,0.00003947,0.00006471,-48732.22265625,0,0,0
1314365047.62539864,0.00003938,0.00006479,-48734.11328125,0,0,0
1314365047.66550279,0.00003938,0.00006479,-48736.37890625,0,0,0
1314365047.71346784,0.00003938,0.00006479,-48737.89062500,0,0,0
1314365047.76458645,0.00003947,0.00006471,-48739.77734375,0,0,0
1314365047.81326795,0.00003938,0.00006479,-48741.66796875,0,0,0
1314365047.86545873,0.00003947,0.00006472,-48743.55859375,0,0,0
1314365047.91258550,0.00003937,0.00006479,-48745.44531250,0,0,0
1314365047.96551299,0.00003946,0.00006472,-48747.33593750,0,0,0
1314365048.01252794,0.00003937,0.00006479,-48749.22265625,0,0,0
1314365048.06858873,0.00003946,0.00006472,-48751.11328125,0,0,0
1314365048.11344337,0.00003937,0.00006479,-48753.00390625,0,0,0
1314365048.16577363,0.00003946,0.00006472,-48754.89062500,0,0,0
1314365048.21422839,0.00003937,0.00006479,-48756.78125000,0,0,0
1314365048.26552916,0.00003945,0.00006472,-48758.66796875,0,0,0
1314365048.31426144,0.00003936,0.00006479,-48760.55859375,0,0,0
1314365048.36545157,0.00003945,0.00006472,-48762.44921875,0,0,0
1314365048.41360188,0.00003936,0.00006479,-48764.33984375,0,0,0
1314365048.46535587,0.00003945,0.00006472,-48766.22656250,0,0,0
1314365048.51345849,0.00003936,0.00006479,-48768.11718750,0,0,0
1314365048.56462598,0.00003945,0.00006472,-48770.00781250,0,0,0
1314365048.61269188,0.00003935,0.00006479,-48771.89453125,0,0,0
1314365048.66882396,0.00003944,0.00006472,-48773.78515625,0,0,0
1314365048.71334600,0.00003935,0.00006479,-48775.67578125,0,0,0
1314365048.76455998,0.00003944,0.00006472,-48777.56250000,0,0,0
1314365048.81261301,0.00003935,0.00006479,-48779.45312500,0,0,0
1314365048.86453915,0.00003944,0.00006472,-48781.34375000,0,0,0
1314365048.91346931,0.00003935,0.00006479,-48783.23437500,0,0,0
1314365048.96554661,0.00003944,0.00006472,-48785.12109375,0,0,0
1314365049.01350760,0.00003934,0.00006479,-48787.01171875,0,0,0
1314365049.06550050,0.00003943,0.00006472,-48788.90234375,0,0,0
1314365049.11247087,0.00003934,0.00006480,-48790.79296875,0,0,0
1314365049.16851687,0.00003943,0.00006472,-48792.67968750,0,0,0
1314365049.21347117,0.00003934,0.00006480,-48794.57031250,0,0,0
1314365049.26452541,0.00003943,0.00006472,-48796.46093750,0,0,0
1314365049.31344223,0.00003933,0.00006480,-48798.35156250,0,0,0
1314365049.36446619,0.00003942,0.00006472,-48800.24218750,0,0,0
1314365049.41349363,0.00003933,0.00006480,-48802.13281250,0,0,0
1314365049.46545887,0.00003942,0.00006472,-48804.01953125,0,0,0
1314365049.51350904,0.00003933,0.00006480,-48805.91015625,0,0,0
1314365049.56458688,0.00003942,0.00006472,-48807.80078125,0,0,0
1314365049.61350775,0.00003933,0.00006480,-48809.69140625,0,0,0
1314365049.66846156,0.00003942,0.00006472,-48811.58203125,0,0,0
1314365049.71345210,0.00003932,0.00006480,-48813.47265625,0,0,0
1314365049.76547170,0.00003941,0.00006472,-48815.36328125,0,0,0
1314365049.81548667,0.00003932,0.00006480,-48817.25000000,0,0,0
1314365049.86567187,0.00003941,0.00006473,-48819.14062500,0,0,0
1314365049.91349220,0.00003932,0.00006480,-48821.03125000,0,0,0
1314365049.96449399,0.00003941,0.00006473,-48822.92187500,0,0,0
1314365050.01347470,0.00003931,0.00006480,-48824.81250000,0,0,0
1314365050.06453395,0.00003941,0.00006473,-48826.70312500,0,0,0
1314365050.11345410,0.00003931,0.00006480,-48828.59375000,0,0,0
1314365050.16553402,0.00003940,0.00006473,-48830.48437500,0,0,0
1314365050.21620822,0.00003931,0.00006480,-48832.37500000,0,0,0
1314365050.26595283,0.00003940,0.00006473,-48834.26562500,0,0,0
1314365050.31267524,0.00003931,0.00006480,-48836.15625000,0,0,0
1314365050.36454225,0.00003940,0.00006473,-48838.04687500,0,0,0
1314365050.41347623,0.00003930,0.00006480,-48839.93750000,0,0,0
1314365050.46626353,0.00003939,0.00006473,-48841.82812500,0,0,0
1314365050.51346421,0.00003930,0.00006480,-48843.71875000,0,0,0
1314365050.56451941,0.00003939,0.00006473,-48845.60937500,0,0,0
1314365050.61328077,0.00003930,0.00006480,-48847.50000000,0,0,0
1314365050.66856432,0.00003939,0.00006473,-48849.39062500,0,0,0
1314365050.71439028,0.00003929,0.00006480,-48851.28125000,0,0,0
1314365050.76851439,0.00003939,0.00006473,-48853.17187500,0,0,0
1314365050.82561016,0.00003929,0.00006481,-48855.06250000,0,0,0
1314365050.86549115,0.00003929,0.00006481,-48857.33203125,0,0,0
1314365050.91345811,0.00003929,0.00006481,-48858.84375000,0,0,0
1314365050.96562338,0.00003938,0.00006473,-48860.73437500,0,0,0
1314365051.01259470,0.00003929,0.00006481,-48862.62500000,0,0,0
1314365051.06547570,0.00003938,0.00006473,-48864.51562500,0,0,0
1314365051.11349821,0.00003928,0.00006481,-48866.40625000,0,0,0
1314365051.16716528,0.00003937,0.00006473,-48868.29687500,0,0,0
1314365051.21347046,0.00003928,0.00006481,-48870.19140625,0,0,0
1314365051.26452398,0.00003937,0.00006473,-48872.08203125,0,0,0
1314365051.31347275,0.00003928,0.00006481,-48873.97265625,0,0,0
1314365051.36475062,0.00003937,0.00006473,-48875.86328125,0,0,0
1314365051.41327286,0.00003927,0.00006481,-48877.75390625,0,0,0
1314365051.46673918,0.00003937,0.00006473,-48879.64453125,0,0,0
1314365051.51326036,0.00003927,0.00006481,-48881.53515625,0,0,0
1314365051.56956530,0.00003936,0.00006473,-48883.42578125,0,0,0
1314365051.61348248,0.00003927,0.00006481,-48885.32031250,0,0,0
1314365051.66452265,0.00003936,0.00006473,-48887.21093750,0,0,0
1314365051.71344352,0.00003927,0.00006481,-48889.10156250,0,0,0
1314365051.76552057,0.00003936,0.00006473,-48890.99218750,0,0,0
1314365051.81324959,0.00003926,0.00006481,-48892.88281250,0,0,0
1314365051.86370063,0.00003936,0.00006473,-48894.77734375,0,0,0
1314365051.91259551,0.00003926,0.00006481,-48896.66796875,0,0,0
1314365051.96452212,0.00003935,0.00006473,-48898.55859375,0,0,0
1314365052.02509928,0.00003926,0.00006481,-48900.44921875,0,0,0
1314365052.06548905,0.00003926,0.00006481,-48902.72265625,0,0,0
1314365052.11369038,0.00003925,0.00006481,-48904.23437500,0,0,0
1314365052.16462111,0.00003935,0.00006473,-48906.12500000,0,0,0
1314365052.21356535,0.00003925,0.00006481,-48908.01562500,0,0,0
1314365052.26552439,0.00003935,0.00006473,-48909.91015625,0,0,0
1314365052.31278801,0.00003925,0.00006481,-48911.80078125,0,0,0
1314365052.36950469,0.00003934,0.00006474,-48913.69140625,0,0,0
1314365052.41351485,0.00003925,0.00006481,-48915.58593750,0,0,0
1314365052.46553016,0.00003934,0.00006474,-48917.47656250,0,0,0
1314365052.51346254,0.00003924,0.00006482,-48919.36718750,0,0,0
1314365052.56549287,0.00003934,0.00006474,-48921.26171875,0,0,0
1314365052.61364079,0.00003924,0.00006482,-48923.15234375,0,0,0
1314365052.66674733,0.00003933,0.00006474,-48925.04296875,0,0,0
1314365052.71319079,0.00003924,0.00006482,-48926.93750000,0,0,0
1314365052.76851058,0.00003933,0.00006474,-48928.82812500,0,0,0
1314365052.81347942,0.00003923,0.00006482,-48930.71875000,0,0,0
1314365052.86517239,0.00003933,0.00006474,-48932.61328125,0,0,0
1314365052.91306925,0.00003923,0.00006482,-48934.50390625,0,0,0
1314365052.96546292,0.00003933,0.00006474,-48936.39453125,0,0,0
1314365053.01251435,0.00003923,0.00006482,-48938.28906250,0,0,0
1314365053.06547928,0.00003932,0.00006474,-48940.17968750,0,0,0
1314365053.11346459,0.00003923,0.00006482,-48942.07421875,0,0,0
1314365053.16464710,0.00003932,0.00006474,-48943.96484375,0,0,0
1314365053.21350718,0.00003922,0.00006482,-48945.85937500,0,0,0
1314365053.26561451,0.00003932,0.00006474,-48947.75000000,0,0,0
1314365053.31356096,0.00003922,0.00006482,-48949.64062500,0,0,0
1314365053.36521411,0.00003932,0.00006474,-48951.53515625,0,0,0
1314365053.41320515,0.00003922,0.00006482,-48953.42578125,0,0,0
1314365053.46548796,0.00003931,0.00006474,-48955.32031250,0,0,0
1314365053.51360750,0.00003921,0.00006482,-48957.21093750,0,0,0
1314365053.56849694,0.00003931,0.00006474,-48959.10156250,0,0,0
1314365053.61306119,0.00003921,0.00006482,-48960.99609375,0,0,0
1314365053.66560793,0.00003931,0.00006474,-48962.88671875,0,0,0
1314365053.71347022,0.00003921,0.00006482,-48964.78125000,0,0,0
1314365053.76452351,0.00003930,0.00006474,-48966.67187500,0,0,0
1314365053.81318474,0.00003920,0.00006482,-48968.56640625,0,0,0
1314365053.86550379,0.00003930,0.00006474,-48970.45703125,0,0,0
1314365053.91313124,0.00003920,0.00006482,-48972.35156250,0,0,0
1314365053.96586633,0.00003930,0.00006474,-48974.24609375,0,0,0
1314365054.01345801,0.00003920,0.00006483,-48976.13671875,0,0,0
1314365054.06460786,0.00003930,0.00006474,-48978.03125000,0,0,0
1314365054.11344457,0.00003920,0.00006483,-48979.92187500,0,0,0
1314365054.16454434,0.00003929,0.00006474,-48981.81640625,0,0,0
1314365054.21360922,0.00003919,0.00006483,-48983.70703125,0,0,0
1314365054.26548815,0.00003929,0.00006474,-48985.60156250,0,0,0
1314365054.31269693,0.00003919,0.00006483,-48987.49609375,0,0,0
1314365054.36465716,0.00003929,0.00006475,-48989.38671875,0,0,0
1314365054.41254163,0.00003919,0.00006483,-48991.28125000,0,0,0
1314365054.46447301,0.00003929,0.00006475,-48993.17187500,0,0,0
1314365054.51345754,0.00003918,0.00006483,-48995.06640625,0,0,0
1314365054.56504416,0.00003928,0.00006475,-48996.95703125,0,0,0
1314365054.61301661,0.00003918,0.00006483,-48998.85156250,0,0,0
1314365054.66589355,0.00003928,0.00006475,-49000.74609375,0,0,0
1314365054.71631455,0.00003918,0.00006483,-49002.63671875,0,0,0
1314365054.76504540,0.00003928,0.00006475,-49004.53125000,0,0,0
1314365054.81344008,0.00003917,0.00006483,-49006.42578125,0,0,0
1314365054.86501861,0.00003927,0.00006475,-49008.31640625,0,0,0
1314365054.91346955,0.00003917,0.00006483,-49010.21093750,0,0,0
1314365054.96461344,0.00003927,0.00006475,-49012.10156250,0,0,0
1314365055.01351643,0.00003917,0.00006483,-49013.99609375,0,0,0
1314365055.06588697,0.00003927,0.00006475,-49015.89062500,0,0,0
1314365055.11360955,0.00003917,0.00006483,-49017.78125000,0,0,0
1314365055.16947913,0.00003927,0.00006475,-49019.67578125,0,0,0
1314365055.22461128,0.00003916,0.00006483,-49021.57031250,0,0,0
1314365055.26561451,0.00003916,0.00006483,-49023.83984375,0,0,0
1314365055.31344366,0.00003916,0.00006483,-49025.35546875,0,0,0
1314365055.36452103,0.00003926,0.00006475,-49027.25000000,0,0,0
1314365055.41361713,0.00003916,0.00006483,-49029.14062500,0,0,0
1314365055.46790242,0.00003926,0.00006475,-49031.03515625,0,0,0
1314365055.51362181,0.00003915,0.00006484,-49032.92968750,0,0,0
1314365055.56948876,0.00003925,0.00006475,-49034.82031250,0,0,0
1314365055.61300921,0.00003915,0.00006484,-49036.71484375,0,0,0
1314365055.66561937,0.00003925,0.00006475,-49038.60937500,0,0,0
1314365055.71348858,0.00003915,0.00006484,-49040.50390625,0,0,0
1314365055.77346826,0.00003925,0.00006475,-49042.39453125,0,0,0
